Project,Study,Ord_Occ,Event_Num,Cast_ID,Date_Time_UTC,Date_Time_PST,Lat_Dec,Lon_Dec,Sta_ID,Line,Sta,Depth,Pressure,PrQ,Temp1,Temp1Q,Temp2,Temp2Q,TempAve,Salt1,Salt1Q,Salt1_Corr,Salt2,Salt2Q,Salt2_Corr,SaltAve_Corr,Ox1,Ox1Q,Ox1_CruiseCorr,Ox1_StaCorr,Ox2,Ox2Q,Ox2_CruiseCorr,Ox2_StaCorr,OxAve_StaCorr,Ox1uM,Ox1uM_CruiseCorr,Ox1uM_StaCorr,Ox2uM,Ox2uM_CruiseCorr,Ox2uM_StaCorr,OxAveuM_StaCorr,FluorV,FluorQ,EstChl_CruiseCorr,EstChl_StaCorr,ISUSV,ISUSQ,EstNO3_CruiseCorr,EstNO3_StaCorr,SigThetaTS1,SigThetaTS1Q,SigThetaTS2,SigThetaTS2Q,BAT,XMiss,TransQ,pH,pHQ,SPAR,SPARQ,PAR,PARQ,PoT1,PoT2,DynHt,SVA,OxSat1,OxSat2,BTL_Depth,BTL_Temp,SaltB,OxB,OxBuM,Chl-a,Phaeo,NO3,NO2,NH4,PO4,SIL
CalCOFI,2105SH,008,,2105_008u,05-May-2021 18:12:48,05-May-2021 10:12:48,32.01338,-119.23214,093.3 055.0,093.3,055.0,515.000,519.265,,6.1358,,6.1358,,6.1358,34.3225,,34.3237,34.3232,,34.3251,34.3244,0.2532,,0.3309,0.3992,0.2606,,0.3293,0.4067,0.4030,11.008,14.0066,15.4133,11.333,17.0172,15.4656,15.4395,0.0369,,,,0.5822,,0.0000,,27.0059,,27.0064,,,,,,,,,,,6.0900,6.0899,0.8157,111.693,3.659,3.767,,,,,,,,,,,,
CalCOFI,2105SH,008,,2105_008u,05-May-2021 18:13:13,05-May-2021 10:13:13,32.01339,-119.23203,093.3 055.0,093.3,055.0,514.000,518.255,,6.1360,,6.1360,,6.1360,34.3223,,34.3235,34.3231,,34.3250,34.3243,0.2527,,0.3304,0.3987,0.2569,,0.3255,0.4029,0.4008,10.991,13.9888,15.3956,11.169,16.9988,15.2968,15.3462,0.0369,,,,0.5814,,0.0000,,27.0057,,27.0063,,,,,,,,,,,6.0902,6.0903,0.8174,111.695,3.653,3.713,514,6.136,34.3229,0.401,17.44,,,40.42,0.00,0.00,3.22,73.13
CalCOFI,2105SH,008,,2105_008u,05-May-2021 18:14:24,05-May-2021 10:14:24,32.01335,-119.23180,093.3 055.0,093.3,055.0,513.000,517.246,,6.1357,,6.1357,,6.1357,34.3222,,34.3234,34.3230,,34.3249,34.3242,0.2477,,0.3251,0.3935,0.2567,,0.3253,0.4027,0.3981,10.771,13.7588,15.1670,11.161,16.7612,15.2886,15.2278,0.0367,,,,0.5808,,0.0000,,27.0056,,27.0062,,,,,,,,,,,6.0900,6.0901,0.8247,111.686,3.581,3.710,,,,,,,,,,,,
CalCOFI,2105SH,008,,2105_008u,05-May-2021 18:14:54,05-May-2021 10:14:54,32.01330,-119.23176,093.3 055.0,093.3,055.0,512.000,516.236,,6.1354,,6.1359,,6.1357,34.3222,,34.3234,34.3228,,34.3247,34.3241,0.2489,,0.3264,0.3947,0.2513,,0.3197,0.3972,0.3960,10.826,13.8163,15.2241,10.926,16.8206,15.0468,15.1355,0.0358,,,,0.5804,,0.0000,,27.0057,,27.0060,,,,,,,,,,,6.0899,6.0904,0.8274,111.668,3.599,3.632,,,,,,,,,,,,
CalCOFI,2105SH,008,,2105_008u,05-May-2021 18:14:54,05-May-2021 10:14:54,32.01330,-119.23176,093.3 055.0,093.3,055.0,511.000,515.227,,6.1361,,6.1365,,6.1363,34.3222,,34.3234,34.3229,,34.3248,34.3241,0.2489,,0.3264,0.3947,0.2518,,0.3202,0.3977,0.3962,10.824,13.8142,15.2221,10.950,16.8185,15.0715,15.1468,0.0368,,,,0.5803,,0.0000,,27.0055,,27.0060,,,,,,,,,,,6.0907,6.0911,0.8274,111.667,3.598,3.640,,,,,,,,,,,,
CalCOFI,2105SH,008,,2105_008u,05-May-2021 18:14:55,05-May-2021 10:14:55,32.01330,-119.23174,093.3 055.0,093.3,055.0,510.000,514.217,,6.1369,,6.1364,,6.1367,34.3222,,34.3234,34.3230,,34.3249,34.3242,0.2489,,0.3264,0.3947,0.2528,,0.3213,0.3987,0.3967,10.823,13.8132,15.2210,10.996,16.8174,15.1188,15.1699,0.0368,,,,0.5803,,0.0000,,27.0054,,27.0061,,,,,,,,,,,6.0915,6.0910,0.8274,111.663,3.598,3.655,,,,,,,,,,,,
CalCOFI,2105SH,008,,2105_008u,05-May-2021 18:14:57,05-May-2021 10:14:57,32.01330,-119.23174,093.3 055.0,093.3,055.0,509.000,513.208,,6.1389,,6.1383,,6.1386,34.3221,,34.3233,34.3230,,34.3249,34.3241,0.2488,,0.3263,0.3946,0.2551,,0.3236,0.4011,0.3979,10.821,13.8111,15.2189,11.094,16.8152,15.2197,15.2193,0.0370,,,,0.5803,,0.0000,,27.0051,,27.0059,,,,,,,,,,,6.0936,6.0930,0.8274,111.684,3.597,3.688,,,,,,,,,,,,
CalCOFI,2105SH,008,,2105_008u,05-May-2021 18:14:58,05-May-2021 10:14:58,32.01330,-119.23174,093.3 055.0,093.3,055.0,508.000,512.198,,6.1389,,6.1401,,6.1395,34.3220,,34.3232,34.3228,,34.3247,34.3240,0.2488,,0.3263,0.3946,0.2514,,0.3198,0.3973,0.3960,10.819,13.8090,15.2169,10.934,16.8131,15.0550,15.1360,0.0372,,,,0.5804,,0.0000,,27.0050,,27.0054,,,,,,,,,,,6.0937,6.0949,0.8274,111.677,3.597,3.635,,,,,,,,,,,,
CalCOFI,2105SH,008,,2105_008u,05-May-2021 18:14:59,05-May-2021 10:14:59,32.01330,-119.23174,093.3 055.0,093.3,055.0,507.000,511.189,,6.1405,,6.1422,,6.1414,34.3219,,34.3231,34.3224,,34.3243,34.3237,0.2488,,0.3263,0.3946,0.2593,,0.3280,0.4054,0.4000,10.817,13.8069,15.2148,11.273,16.8109,15.4039,15.3094,0.0370,,,,0.5804,,0.0000,,27.0047,,27.0049,,,,,,,,,,,6.0954,6.0971,0.8274,111.693,3.596,3.748,,,,,,,,,,,,
CalCOFI,2105SH,008,,2105_008u,05-May-2021 18:15:00,05-May-2021 10:15:00,32.01328,-119.23174,093.3 055.0,093.3,055.0,506.000,510.179,,6.1418,,6.1428,,6.1423,34.3217,,34.3229,34.3227,,34.3246,34.3238,0.2487,,0.3262,0.3945,0.2590,,0.3277,0.4050,0.3998,10.815,13.8048,15.2127,11.261,16.8087,15.3915,15.3021,0.0366,,,,0.5804,,0.0000,,27.0044,,27.0050,,,,,,,,,,,6.0968,6.0978,0.8274,111.709,3.596,3.744,,,,,,,,,,,,
CalCOFI,2105SH,008,,2105_008u,05-May-2021 18:15:01,05-May-2021 10:15:01,32.01328,-119.23174,093.3 055.0,093.3,055.0,505.000,509.170,,6.1434,,6.1439,,6.1437,34.3217,,34.3229,34.3228,,34.3247,34.3238,0.2487,,0.3262,0.3945,0.2564,,0.3250,0.4024,0.3985,10.814,13.8038,15.2117,11.147,16.8077,15.2742,15.2430,0.0368,,,,0.5805,,0.0000,,27.0042,,27.0049,,,,,,,,,,,6.0985,6.0989,0.8274,111.720,3.595,3.706,,,,,,,,,,,,
CalCOFI,2105SH,008,,2105_008u,05-May-2021 18:15:01,05-May-2021 10:15:01,32.01328,-119.23174,093.3 055.0,093.3,055.0,504.000,508.160,,6.1456,,6.1442,,6.1449,34.3215,,34.3227,34.3228,,34.3247,34.3237,0.2487,,0.3262,0.3945,0.2605,,0.3292,0.4066,0.4006,10.815,13.8048,15.2127,11.329,16.8087,15.4615,15.3371,0.0365,,,,0.5805,,0.0000,,27.0037,,27.0049,,,,,,,,,,,6.1007,6.0994,0.8274,111.754,3.596,3.767,,,,,,,,,,,,
CalCOFI,2105SH,008,,2105_008u,05-May-2021 18:15:02,05-May-2021 10:15:02,32.01328,-119.23173,093.3 055.0,093.3,055.0,503.000,507.151,,6.1468,,6.1454,,6.1461,34.3215,,34.3227,34.3228,,34.3247,34.3237,0.2506,,0.3282,0.3965,0.2565,,0.3251,0.4025,0.3995,10.897,13.8905,15.2979,11.152,16.8973,15.2793,15.2886,0.0361,,,,0.5805,,0.0000,,27.0035,,27.0047,,,,,,,,,,,6.1021,6.1007,0.8274,111.751,3.623,3.708,,,,,,,,,,,,
CalCOFI,2105SH,008,,2105_008u,05-May-2021 18:15:03,05-May-2021 10:15:03,32.01328,-119.23172,093.3 055.0,093.3,055.0,502.000,506.141,,6.1515,,6.1506,,6.1511,34.3205,,34.3217,34.3225,,34.3244,34.3231,0.2575,,0.3354,0.4036,0.2579,,0.3265,0.4039,0.4038,11.197,14.2041,15.6097,11.214,17.2213,15.3432,15.4765,0.0369,,,,0.5806,,0.0000,,27.0021,,27.0038,,,,,,,,,,,6.1068,6.1059,0.8274,111.877,3.723,3.729,,,,,,,,,,,,
CalCOFI,2105SH,008,,2105_008u,05-May-2021 18:15:04,05-May-2021 10:15:04,32.01328,-119.23172,093.3 055.0,093.3,055.0,501.000,505.132,,6.1688,,6.1623,,6.1656,34.3196,,34.3208,34.3215,,34.3234,34.3221,0.2542,,0.3319,0.4002,0.2566,,0.3252,0.4026,0.4014,11.053,14.0536,15.4601,11.159,17.0658,15.2866,15.3734,0.0366,,,,0.5807,,0.0000,,26.9992,,27.0015,,,,,,,,,,,6.1241,6.1177,0.8274,112.162,3.677,3.711,,,,,,,,,,,,
CalCOFI,2105SH,008,,2105_008u,05-May-2021 18:15:05,05-May-2021 10:15:05,32.01328,-119.23172,093.3 055.0,093.3,055.0,500.000,504.122,,6.1673,,6.1672,,6.1673,34.3201,,34.3213,34.3208,,34.3227,34.3220,0.2528,,0.3305,0.3988,0.2565,,0.3251,0.4025,0.4007,10.994,13.9919,15.3988,11.156,17.0021,15.2835,15.3412,0.0366,,,,0.5808,,0.0000,,26.9997,,27.0003,,,,,,,,,,,6.1227,6.1227,0.8274,112.090,3.657,3.711,,,,,,,,,,,,
CalCOFI,2105SH,008,,2105_008u,05-May-2021 18:15:06,05-May-2021 10:15:06,32.01328,-119.23172,093.3 055.0,093.3,055.0,499.000,503.113,,6.1680,,6.1732,,6.1706,34.3197,,34.3209,34.3199,,34.3218,34.3214,0.2533,,0.3310,0.3993,0.2565,,0.3251,0.4025,0.4009,11.014,14.0128,15.4195,11.152,17.0237,15.2793,15.3494,0.0366,,,,0.5810,,0.0000,,26.9993,,26.9988,,,,,,,,,,,6.1235,6.1287,0.8274,112.115,3.664,3.710,,,,,,,,,,,,
CalCOFI,2105SH,008,,2105_008u,05-May-2021 18:15:07,05-May-2021 10:15:07,32.01328,-119.23171,093.3 055.0,093.3,055.0,498.000,502.103,,6.1668,,6.1734,,6.1701,34.3207,,34.3219,34.3202,,34.3221,34.3220,0.2588,,0.3368,0.4050,0.2598,,0.3285,0.4059,0.4055,11.256,14.2658,15.6711,11.299,17.2850,15.4306,15.5509,0.0366,,,,0.5811,,0.0000,,27.0003,,26.9991,,,,,,,,,,,6.1224,6.1290,0.8274,112.013,3.744,3.759,,,,,,,,,,,,
CalCOFI,2105SH,008,,2105_008u,05-May-2021 18:15:07,05-May-2021 10:15:07,32.01328,-119.23170,093.3 055.0,093.3,055.0,497.000,501.094,,6.1702,,6.1724,,6.1713,34.3191,,34.3203,34.3201,,34.3220,34.3212,0.2637,,0.3419,0.4100,0.2672,,0.3362,0.4134,0.4117,11.468,14.4874,15.8914,11.620,17.5140,15.7610,15.8262,0.0366,,,,0.5812,,0.0000,,26.9986,,26.9991,,,,,,,,,,,6.1259,6.1281,0.8274,112.157,3.815,3.866,,,,,,,,,,,,
CalCOFI,2105SH,008,,2105_008u,05-May-2021 18:15:08,05-May-2021 10:15:08,32.01326,-119.23170,093.3 055.0,093.3,055.0,496.000,500.084,,6.1769,,6.1698,,6.1734,34.3183,,34.3195,34.3203,,34.3222,34.3209,0.2593,,0.3373,0.4055,0.2681,,0.3371,0.4143,0.4099,11.275,14.2857,15.6908,11.658,17.3055,15.8001,15.7455,0.0366,,,,0.5813,,0.0000,,26.9970,,26.9995,,,,,,,,,,,6.1327,6.1256,0.8274,112.299,3.751,3.878,,,,,,,,,,,,
CalCOFI,2105SH,008,,2105_008u,05-May-2021 18:15:09,05-May-2021 10:15:09,32.01326,-119.23170,093.3 055.0,093.3,055.0,495.000,499.075,,6.1786,,6.1746,,6.1766,34.3186,,34.3198,34.3206,,34.3225,34.3212,0.2572,,0.3351,0.4033,0.2613,,0.3301,0.4074,0.4054,11.183,14.1895,15.5952,11.364,17.2062,15.4975,15.5464,0.0374,,,,0.5814,,0.0000,,26.9970,,26.9991,,,,,,,,,,,6.1345,6.1305,0.8274,112.286,3.721,3.781,,,,,,,,,,,,
CalCOFI,2105SH,008,,2105_008u,05-May-2021 18:15:10,05-May-2021 10:15:10,32.01326,-119.23170,093.3 055.0,093.3,055.0,494.000,498.065,,6.1853,,6.1825,,6.1839,34.3178,,34.3190,34.3190,,34.3209,34.3200,0.2570,,0.3349,0.4031,0.2608,,0.3295,0.4069,0.4050,11.177,14.1832,15.5890,11.341,17.1997,15.4739,15.5315,0.0366,,,,0.5816,,0.0000,,26.9955,,26.9969,,,,,,,,,,,6.1413,6.1384,0.8274,112.420,3.719,3.774,,,,,,,,,,,,
CalCOFI,2105SH,008,,2105_008u,05-May-2021 18:15:11,05-May-2021 10:15:11,32.01326,-119.23168,093.3 055.0,093.3,055.0,493.000,497.056,,6.1929,,6.1910,,6.1920,34.3163,,34.3175,34.3178,,34.3197,34.3186,0.2613,,0.3394,0.4075,0.2667,,0.3356,0.4129,0.4102,11.364,14.3787,15.7833,11.599,17.4017,15.7394,15.7614,0.0365,,,,0.5819,,0.0000,,26.9934,,26.9949,,,,,,,,,,,6.1489,6.1470,0.8274,112.616,3.782,3.861,,,,,,,,,,,,
CalCOFI,2105SH,008,,2105_008u,05-May-2021 18:15:12,05-May-2021 10:15:12,32.01326,-119.23168,093.3 055.0,093.3,055.0,492.000,496.047,,6.1936,,6.1977,,6.1957,34.3166,,34.3178,34.3171,,34.3190,34.3184,0.2685,,0.3469,0.4150,0.2718,,0.3409,0.4181,0.4166,11.674,14.7028,16.1055,11.817,17.7365,15.9637,16.0346,0.0366,,,,0.5821,,0.0000,,26.9935,,26.9935,,,,,,,,,,,6.1497,6.1538,0.8274,112.590,3.886,3.934,,,,,,,,,,,,
CalCOFI,2105SH,008,,2105_008u,05-May-2021 18:15:13,05-May-2021 10:15:13,32.01326,-119.23168,093.3 055.0,093.3,055.0,491.000,495.037,,6.1960,,6.1990,,6.1975,34.3168,,34.3180,34.3168,,34.3187,34.3184,0.2620,,0.3401,0.4083,0.2646,,0.3335,0.4108,0.4096,11.394,14.4101,15.8145,11.509,17.4341,15.6468,15.7307,0.0372,,,,0.5823,,0.0000,,26.9934,,26.9930,,,,,,,,,,,6.1521,6.1552,0.8274,112.593,3.793,3.831,,,,,,,,,,,,
CalCOFI,2105SH,008,,2105_008u,05-May-2021 18:15:14,05-May-2021 10:15:14,32.01326,-119.23168,093.3 055.0,093.3,055.0,490.000,494.028,,6.2002,,6.1960,,6.1981,34.3158,,34.3170,34.3173,,34.3192,34.3181,0.2616,,0.3397,0.4079,0.2648,,0.3337,0.4110,0.4095,11.377,14.3923,15.7968,11.515,17.4157,15.6529,15.7249,0.0372,,,,0.5824,,0.0000,,26.9920,,26.9938,,,,,,,,,,,6.1564,6.1523,0.8274,112.710,3.787,3.833,,,,,,,,,,,,
CalCOFI,2105SH,008,,2105_008u,05-May-2021 18:15:14,05-May-2021 10:15:14,32.01326,-119.23168,093.3 055.0,093.3,055.0,489.000,493.018,,6.2008,,6.1950,,6.1979,34.3162,,34.3174,34.3176,,34.3195,34.3185,0.2616,,0.3397,0.4079,0.2648,,0.3337,0.4110,0.4095,11.376,14.3913,15.7958,11.514,17.4146,15.6519,15.7239,0.0364,,,,0.5826,,0.0000,,26.9922,,26.9941,,,,,,,,,,,6.1572,6.1514,0.8274,112.676,3.787,3.832,,,,,,,,,,,,
CalCOFI,2105SH,008,,2105_008u,05-May-2021 18:15:15,05-May-2021 10:15:15,32.01326,-119.23168,093.3 055.0,093.3,055.0,488.000,492.009,,6.2018,,6.2022,,6.2020,34.3158,,34.3170,34.3170,,34.3189,34.3180,0.2616,,0.3397,0.4079,0.2647,,0.3336,0.4109,0.4094,11.374,14.3892,15.7937,11.510,17.4125,15.6478,15.7208,0.0362,,,,0.5827,,0.0000,,26.9918,,26.9927,,,,,,,,,,,6.1582,6.1587,0.8274,112.706,3.787,3.832,,,,,,,,,,,,
CalCOFI,2105SH,008,,2105_008u,05-May-2021 18:15:15,05-May-2021 10:15:15,32.01326,-119.23168,093.3 055.0,093.3,055.0,487.000,491.000,,6.2058,,6.2040,,6.2049,34.3152,,34.3164,34.3173,,34.3192,34.3178,0.2651,,0.3433,0.4115,0.2646,,0.3335,0.4108,0.4112,11.526,14.5481,15.9517,11.508,17.5766,15.6457,15.7987,0.0373,,,,0.5829,,0.0000,,26.9909,,26.9927,,,,,,,,,,,6.1623,6.1605,0.8274,112.783,3.837,3.831,,,,,,,,,,,,
CalCOFI,2105SH,008,,2105_008u,05-May-2021 18:15:16,05-May-2021 10:15:16,32.01326,-119.23168,093.3 055.0,093.3,055.0,486.000,489.990,,6.2100,,6.2084,,6.2092,34.3151,,34.3163,34.3165,,34.3184,34.3174,0.2684,,0.3468,0.4149,0.2695,,0.3385,0.4158,0.4154,11.670,14.6986,16.1014,11.717,17.7321,15.8608,15.9811,0.0358,,,,0.5831,,0.0000,,26.9902,,26.9915,,,,,,,,,,,6.1666,6.1650,0.8274,112.836,3.885,3.901,,,,,,,,,,,,
CalCOFI,2105SH,008,,2105_008u,05-May-2021 18:15:17,05-May-2021 10:15:17,32.01326,-119.23166,093.3 055.0,093.3,055.0,485.000,488.981,,6.2139,,6.2122,,6.2131,34.3149,,34.3161,34.3163,,34.3182,34.3172,0.2678,,0.3462,0.4143,0.2742,,0.3434,0.4206,0.4175,11.645,14.6725,16.0754,11.923,17.7051,16.0728,16.0741,0.0365,,,,0.5834,,0.0000,,26.9895,,26.9908,,,,,,,,,,,6.1705,6.1689,0.8274,112.888,3.878,3.970,,,,,,,,,,,,
CalCOFI,2105SH,008,,2105_008u,05-May-2021 18:15:18,05-May-2021 10:15:18,32.01324,-119.23166,093.3 055.0,093.3,055.0,484.000,487.971,,6.2151,,6.2165,,6.2158,34.3151,,34.3163,34.3157,,34.3176,34.3170,0.2660,,0.3443,0.4124,0.2703,,0.3394,0.4166,0.4145,11.566,14.5899,15.9933,11.753,17.6198,15.8979,15.9456,0.0359,,,,0.5837,,0.0000,,26.9895,,26.9898,,,,,,,,,,,6.1718,6.1733,0.8274,112.878,3.851,3.914,,,,,,,,,,,,
CalCOFI,2105SH,008,,2105_008u,05-May-2021 18:15:19,05-May-2021 10:15:19,32.01324,-119.23166,093.3 055.0,093.3,055.0,483.000,486.962,,6.2158,,6.2189,,6.2174,34.3141,,34.3153,34.3154,,34.3173,34.3163,0.2658,,0.3441,0.4122,0.2717,,0.3408,0.4180,0.4151,11.557,14.5805,15.9839,11.817,17.6101,15.9637,15.9738,0.0363,,,,0.5840,,0.0000,,26.9886,,26.9892,,,,,,,,,,,6.1726,6.1757,0.8274,112.946,3.849,3.935,,,,,,,,,,,,
CalCOFI,2105SH,008,,2105_008u,05-May-2021 18:15:20,05-May-2021 10:15:20,32.01324,-119.23166,093.3 055.0,093.3,055.0,482.000,485.953,,6.2214,,6.2220,,6.2217,34.3138,,34.3150,34.3149,,34.3168,34.3159,0.2657,,0.3440,0.4121,0.2789,,0.3483,0.4254,0.4188,11.554,14.5774,15.9808,12.128,17.6069,16.2838,16.1323,0.0373,,,,0.5843,,0.0000,,26.9877,,26.9884,,,,,,,,,,,6.1783,6.1789,0.8274,113.031,3.848,4.039,,,,,,,,,,,,
CalCOFI,2105SH,008,,2105_008u,05-May-2021 18:15:21,05-May-2021 10:15:21,32.01324,-119.23166,093.3 055.0,093.3,055.0,481.000,484.943,,6.2230,,6.2238,,6.2234,34.3138,,34.3150,34.3148,,34.3167,34.3159,0.2657,,0.3440,0.4121,0.2785,,0.3479,0.4250,0.4186,11.552,14.5753,15.9787,12.111,17.6047,16.2663,16.1225,0.0369,,,,0.5845,,0.0000,,26.9875,,26.9882,,,,,,,,,,,6.1800,6.1808,0.8274,113.036,3.848,4.034,,,,,,,,,,,,
CalCOFI,2105SH,008,,2105_008u,05-May-2021 18:15:22,05-May-2021 10:15:22,32.01324,-119.23166,093.3 055.0,093.3,055.0,480.000,483.934,,6.2276,,6.2301,,6.2289,34.3132,,34.3144,34.3145,,34.3164,34.3154,0.2657,,0.3440,0.4121,0.2730,,0.3422,0.4193,0.4157,11.554,14.5774,15.9808,11.872,17.6069,16.0203,16.0006,0.0366,,,,0.5846,,0.0000,,26.9863,,26.9870,,,,,,,,,,,6.1847,6.1872,0.8274,113.134,3.849,3.955,,,,,,,,,,,,
CalCOFI,2105SH,008,,2105_008u,05-May-2021 18:15:22,05-May-2021 10:15:22,32.01324,-119.23166,093.3 055.0,093.3,055.0,479.000,482.924,,6.2299,,6.2325,,6.2312,34.3136,,34.3148,34.3143,,34.3162,34.3155,0.2679,,0.3463,0.4144,0.2729,,0.3421,0.4192,0.4168,11.649,14.6767,16.0795,11.869,17.7095,16.0172,16.0484,0.0362,,,,0.5848,,0.0000,,26.9864,,26.9866,,,,,,,,,,,6.1870,6.1896,0.8274,113.114,3.881,3.954,,,,,,,,,,,,
CalCOFI,2105SH,008,,2105_008u,05-May-2021 18:15:23,05-May-2021 10:15:23,32.01324,-119.23166,093.3 055.0,093.3,055.0,478.000,481.915,,6.2336,,6.2328,,6.2332,34.3125,,34.3137,34.3142,,34.3161,34.3149,0.2728,,0.3514,0.4194,0.2729,,0.3421,0.4192,0.4193,11.863,14.9004,16.3020,11.867,17.9406,16.0152,16.1586,0.0363,,,,0.5850,,0.0000,,26.9851,,26.9865,,,,,,,,,,,6.1908,6.1900,0.8274,113.232,3.952,3.953,,,,,,,,,,,,
CalCOFI,2105SH,008,,2105_008u,05-May-2021 18:15:24,05-May-2021 10:15:24,32.01323,-119.23166,093.3 055.0,093.3,055.0,477.000,480.906,,6.2357,,6.2327,,6.2342,34.3128,,34.3140,34.3144,,34.3163,34.3152,0.2748,,0.3535,0.4215,0.2729,,0.3421,0.4192,0.4204,11.948,14.9892,16.3903,11.866,18.0324,16.0142,16.2023,0.0365,,,,0.5852,,0.0000,,26.9850,,26.9866,,,,,,,,,,,6.1930,6.1900,0.8274,113.224,3.981,3.953,,,,,,,,,,,,
CalCOFI,2105SH,008,,2105_008u,05-May-2021 18:15:24,05-May-2021 10:15:24,32.01322,-119.23166,093.3 055.0,093.3,055.0,476.000,479.896,,6.2336,,6.2350,,6.2343,34.3137,,34.3149,34.3144,,34.3163,34.3156,0.2718,,0.3503,0.4184,0.2728,,0.3420,0.4191,0.4188,11.817,14.8523,16.2541,11.863,17.8909,16.0111,16.1326,0.0371,,,,0.5854,,0.0000,,26.9859,,26.9863,,,,,,,,,,,6.1910,6.1925,0.8274,113.120,3.937,3.952,,,,,,,,,,,,
CalCOFI,2105SH,008,,2105_008u,05-May-2021 18:15:25,05-May-2021 10:15:25,32.01322,-119.23164,093.3 055.0,093.3,055.0,475.000,478.887,,6.2366,,6.2378,,6.2372,34.3129,,34.3141,34.3141,,34.3160,34.3151,0.2698,,0.3483,0.4163,0.2779,,0.3472,0.4244,0.4204,11.734,14.7655,16.1679,12.086,17.8013,16.2406,16.2043,0.0370,,,,0.5856,,0.0000,,26.9849,,26.9857,,,,,,,,,,,6.1941,6.1953,0.8274,113.205,3.909,4.027,,,,,,,,,,,,
CalCOFI,2105SH,008,,2105_008u,05-May-2021 18:15:26,05-May-2021 10:15:26,32.01322,-119.23164,093.3 055.0,093.3,055.0,474.000,477.878,,6.2452,,6.2478,,6.2465,34.3121,,34.3133,34.3138,,34.3157,34.3145,0.2707,,0.3492,0.4173,0.2838,,0.3534,0.4304,0.4239,11.774,14.8073,16.2095,12.343,17.8445,16.5051,16.3573,0.0370,,,,0.5858,,0.0000,,26.9831,,26.9842,,,,,,,,,,,6.2028,6.2054,0.8274,113.365,3.924,4.113,,,,,,,,,,,,
CalCOFI,2105SH,008,,2105_008u,05-May-2021 18:15:27,05-May-2021 10:15:27,32.01322,-119.23164,093.3 055.0,093.3,055.0,473.000,476.868,,6.2614,,6.2738,,6.2676,34.3107,,34.3119,34.3124,,34.3143,34.3131,0.2788,,0.3577,0.4256,0.2794,,0.3488,0.4259,0.4258,12.124,15.1732,16.5732,12.151,18.2225,16.3075,16.4404,0.0371,,,,0.5861,,0.0000,,26.9799,,26.9797,,,,,,,,,,,6.2190,6.2314,0.8274,113.671,4.041,4.051,,,,,,,,,,,,
CalCOFI,2105SH,008,,2105_008u,05-May-2021 18:15:28,05-May-2021 10:15:28,32.01322,-119.23164,093.3 055.0,093.3,055.0,472.000,475.859,,6.2845,,6.2822,,6.2834,34.3098,,34.3110,34.3117,,34.3136,34.3123,0.2767,,0.3555,0.4235,0.2870,,0.3567,0.4337,0.4286,12.034,15.0791,16.4797,12.480,18.1253,16.6461,16.5629,0.0367,,,,0.5866,,0.0000,,26.9763,,26.9781,,,,,,,,,,,6.2421,6.2398,0.8274,114.027,4.014,4.162,,,,,,,,,,,,
CalCOFI,2105SH,008,,2105_008u,05-May-2021 18:15:30,05-May-2021 10:15:30,32.01322,-119.23164,093.3 055.0,093.3,055.0,471.000,474.850,,6.2895,,6.2838,,6.2867,34.3091,,34.3103,34.3112,,34.3131,34.3117,0.2825,,0.3615,0.4294,0.2808,,0.3503,0.4273,0.4284,12.286,15.3426,16.7416,12.212,18.3974,16.3702,16.5559,0.0371,,,,0.5869,,0.0000,,26.9751,,26.9775,,,,,,,,,,,6.2472,6.2415,0.8274,114.128,4.098,4.073,,,,,,,,,,,,
CalCOFI,2105SH,008,,2105_008u,05-May-2021 18:15:30,05-May-2021 10:15:30,32.01322,-119.23164,093.3 055.0,093.3,055.0,470.000,473.840,,6.2914,,6.2892,,6.2903,34.3096,,34.3108,34.3109,,34.3128,34.3118,0.2816,,0.3606,0.4285,0.2806,,0.3500,0.4271,0.4278,12.246,15.3008,16.7000,12.203,18.3542,16.3610,16.5305,0.0366,,,,0.5871,,0.0000,,26.9752,,26.9765,,,,,,,,,,,6.2492,6.2470,0.8274,114.108,4.085,4.070,,,,,,,,,,,,
CalCOFI,2105SH,008,,2105_008u,05-May-2021 18:15:31,05-May-2021 10:15:31,32.01320,-119.23164,093.3 055.0,093.3,055.0,469.000,472.831,,6.2907,,6.2891,,6.2899,34.3095,,34.3107,34.3109,,34.3128,34.3118,0.2789,,0.3578,0.4257,0.2806,,0.3500,0.4271,0.4264,12.131,15.1805,16.5805,12.201,18.2300,16.3589,16.4697,0.0366,,,,0.5873,,0.0000,,26.9752,,26.9765,,,,,,,,,,,6.2486,6.2469,0.8274,114.088,4.046,4.070,,,,,,,,,,,,
CalCOFI,2105SH,008,,2105_008u,05-May-2021 18:15:31,05-May-2021 10:15:31,32.01320,-119.23164,093.3 055.0,093.3,055.0,468.000,471.822,,6.2927,,6.2896,,6.2912,34.3092,,34.3104,34.3106,,34.3125,34.3115,0.2785,,0.3574,0.4253,0.2805,,0.3499,0.4270,0.4262,12.110,15.1586,16.5587,12.199,18.2073,16.3569,16.4578,0.0361,,,,0.5874,,0.0000,,26.9747,,26.9762,,,,,,,,,,,6.2507,6.2476,0.8274,114.124,4.040,4.069,,,,,,,,,,,,
CalCOFI,2105SH,008,,2105_008u,05-May-2021 18:15:32,05-May-2021 10:15:32,32.01320,-119.23164,093.3 055.0,093.3,055.0,467.000,470.812,,6.2934,,6.2927,,6.2931,34.3094,,34.3106,34.3105,,34.3124,34.3115,0.2784,,0.3573,0.4252,0.2805,,0.3499,0.4270,0.4261,12.108,15.1565,16.5566,12.197,18.2052,16.3548,16.4557,0.0366,,,,0.5876,,0.0000,,26.9748,,26.9757,,,,,,,,,,,6.2515,6.2507,0.8274,114.108,4.039,4.069,,,,,,,,,,,,
CalCOFI,2105SH,008,,2105_008u,05-May-2021 18:15:33,05-May-2021 10:15:33,32.01320,-119.23164,093.3 055.0,093.3,055.0,466.000,469.803,,6.2917,,6.2926,,6.2922,34.3097,,34.3109,34.3108,,34.3127,34.3118,0.2784,,0.3573,0.4252,0.2831,,0.3526,0.4297,0.4275,12.107,15.1555,16.5556,12.312,18.2041,16.4732,16.5144,0.0360,,,,0.5877,,0.0000,,26.9752,,26.9759,,,,,,,,,,,6.2499,6.2508,0.8274,114.047,4.039,4.107,,,,,,,,,,,,
CalCOFI,2105SH,008,,2105_008u,05-May-2021 18:15:33,05-May-2021 10:15:33,32.01320,-119.23164,093.3 055.0,093.3,055.0,465.000,468.794,,6.2924,,6.2953,,6.2939,34.3095,,34.3107,34.3105,,34.3124,34.3116,0.2790,,0.3579,0.4258,0.2891,,0.3588,0.4358,0.4308,12.131,15.1805,16.5805,12.574,18.2300,16.7428,16.6617,0.0366,,,,0.5879,,0.0000,,26.9749,,26.9753,,,,,,,,,,,6.2507,6.2535,0.8274,114.061,4.047,4.195,,,,,,,,,,,,
CalCOFI,2105SH,008,,2105_008u,05-May-2021 18:15:34,05-May-2021 10:15:34,32.01320,-119.23162,093.3 055.0,093.3,055.0,464.000,467.785,,6.2957,,6.2964,,6.2961,34.3089,,34.3101,34.3102,,34.3121,34.3111,0.2822,,0.3612,0.4291,0.2917,,0.3615,0.4385,0.4338,12.272,15.3279,16.7271,12.687,18.3823,16.8591,16.7931,0.0366,,,,0.5881,,0.0000,,26.9741,,26.9750,,,,,,,,,,,6.2540,6.2547,0.8274,114.131,4.094,4.232,,,,,,,,,,,,
CalCOFI,2105SH,008,,2105_008u,05-May-2021 18:15:35,05-May-2021 10:15:35,32.01320,-119.23162,093.3 055.0,093.3,055.0,463.000,466.775,,6.2980,,6.2984,,6.2982,34.3089,,34.3101,34.3100,,34.3119,34.3110,0.2870,,0.3662,0.4341,0.2863,,0.3559,0.4329,0.4335,12.480,15.5454,16.9432,12.452,18.6069,16.6172,16.7802,0.0362,,,,0.5882,,0.0000,,26.9737,,26.9745,,,,,,,,,,,6.2564,6.2568,0.8274,114.150,4.164,4.154,,,,,,,,,,,,
CalCOFI,2105SH,008,,2105_008u,05-May-2021 18:15:36,05-May-2021 10:15:36,32.01320,-119.23162,093.3 055.0,093.3,055.0,462.000,465.766,,6.2985,,6.2981,,6.2983,34.3090,,34.3102,34.3101,,34.3120,34.3111,0.2849,,0.3640,0.4319,0.2850,,0.3546,0.4316,0.4318,12.388,15.4492,16.8476,12.391,18.5076,16.5545,16.7011,0.0373,,,,0.5885,,0.0000,,26.9737,,26.9746,,,,,,,,,,,6.2570,6.2566,0.8274,114.136,4.133,4.134,,,,,,,,,,,,
CalCOFI,2105SH,008,,2105_008u,05-May-2021 18:15:37,05-May-2021 10:15:37,32.01320,-119.23162,093.3 055.0,093.3,055.0,461.000,464.757,,6.3015,,6.3007,,6.3011,34.3086,,34.3098,34.3099,,34.3118,34.3108,0.2825,,0.3615,0.4294,0.2847,,0.3543,0.4313,0.4304,12.287,15.3436,16.7426,12.382,18.3985,16.5452,16.6439,0.0366,,,,0.5889,,0.0000,,26.9730,,26.9741,,,,,,,,,,,6.2601,6.2593,0.8274,114.195,4.100,4.131,,,,,,,,,,,,
CalCOFI,2105SH,008,,2105_008u,05-May-2021 18:15:39,05-May-2021 10:15:39,32.01318,-119.23162,093.3 055.0,093.3,055.0,460.000,463.747,,6.3048,,6.3019,,6.3034,34.3083,,34.3095,34.3096,,34.3115,34.3105,0.2826,,0.3616,0.4295,0.2847,,0.3543,0.4313,0.4304,12.287,15.3436,16.7426,12.380,18.3985,16.5431,16.6429,0.0362,,,,0.5893,,0.0000,,26.9723,,26.9737,,,,,,,,,,,6.2634,6.2606,0.8274,114.246,4.100,4.131,,,,,,,,,,,,